Skagway, AK

5:33 PM AKST on February 24, 2017 (GMT -0900)
Skagway

Weather History for PAGY - October, 2013

Change the Weather History Date:

Monday, October 21, 2013

  Actual Average Record
Temperature  
Mean Temperature 43 °F -  
Max Temperature 50 °F 44 °F 57 °F (1986)
Min Temperature 35 °F 35 °F 25 °F (1966)
Degree Days  
Heating Degree Days 22    
Moisture  
Dew Point 37 °F    
Average Humidity 78    
Maximum Humidity 89    
Minimum Humidity 57    
Precipitation  
Precipitation 0.00 in - - ()
Sea Level Pressure  
Sea Level Pressure 30.16 in    
Wind  
Wind Speed 6 mph (ENE)    
Max Wind Speed 14 mph    
Max Gust Speed 21 mph    
Visibility 10 miles    
Events      
Averages and records for this station are not official NWS values.
T = Trace of Precipitation, MM = Missing Value Source: NWS Daily Summary

Daily Weather History Graph

Daily Weather History Graph

Search for Another Location

Airport or City:

Trip Planner

Search our weather history database for the weather conditions in past years. The results will help you decide how hot, cold, wet, or windy it might be!

Date:

Astronomy

Oct. 21, 2013 Rise Set
Actual Time 7:55 AM AKDT 5:35 PM AKDT
Civil Twilight 7:12 AM AKDT 6:17 PM AKDT
Nautical Twilight 6:25 AM AKDT 7:05 PM AKDT
Astronomical Twilight 5:37 AM AKDT 7:52 PM AKDT
Moon 6:55 PM AKDT (10/21) 11:14 AM AKDT (10/21)
Length of Visible Light 11h 05m
Length of Day
9h 40m
Waning Gibbous, 92% of the Moon is Illuminated
Oct 21
Waning Gibbous
Oct 26
Last Quarter
Nov 3
New
Nov 9
First Quarter
Nov 17
Full

Hourly Weather History & Observations

Time (AKDT) Temp. Windchill Dew Point Humidity Pressure Visibility Wind Dir Wind Speed Gust Speed Precip Events Conditions
12:53 AM 50.0 °F - 37.9 °F 63% 30.06 in 10.0 mi SSW 13.8 mph - N/A   Partly Cloudy
1:53 AM 50.0 °F - 36.0 °F 59% 30.08 in 10.0 mi SSW 11.5 mph 20.7 mph N/A   Overcast
2:53 AM 50.0 °F - 35.1 °F 57% 30.09 in 10.0 mi South 12.7 mph - N/A   Overcast
3:53 AM 48.9 °F - 36.0 °F 61% 30.09 in 10.0 mi SSW 13.8 mph - N/A   Overcast
4:53 AM 48.9 °F - 36.0 °F 61% 30.09 in 10.0 mi Variable 3.5 mph - N/A   Overcast
5:53 AM 45.0 °F 43.5 °F 37.0 °F 74% 30.11 in 10.0 mi ENE 3.5 mph - N/A   Overcast
6:53 AM 43.0 °F 41.3 °F 37.0 °F 80% 30.12 in 10.0 mi Variable 3.5 mph - N/A   Scattered Clouds
7:53 AM 42.1 °F 40.2 °F 36.0 °F 79% 30.14 in 10.0 mi NNE 3.5 mph - N/A   Scattered Clouds
8:44 AM 41.0 °F 37.1 °F 35.6 °F 81% 30.14 in 10.0 mi NNE 5.8 mph - N/A   Mostly Cloudy
8:53 AM 41.0 °F 37.1 °F 36.0 °F 82% 30.14 in 10.0 mi NNE 5.8 mph - N/A   Mostly Cloudy
9:53 AM 43.0 °F - 37.9 °F 82% 30.15 in 10.0 mi Calm Calm - N/A   Overcast
10:29 AM 44.6 °F - 37.4 °F 76% 30.16 in 10.0 mi Calm Calm - N/A   Overcast
10:53 AM 44.1 °F - 39.0 °F 82% 30.17 in 10.0 mi Calm Calm - N/A   Overcast
11:53 AM 44.1 °F - 39.0 °F 82% 30.16 in 10.0 mi Calm Calm - N/A   Partly Cloudy
12:53 PM 44.1 °F - 37.9 °F 79% 30.16 in 10.0 mi Calm Calm - N/A   Clear
1:53 PM 46.0 °F - 39.9 °F 79% 30.17 in 10.0 mi Calm Calm - N/A   Clear
2:53 PM 48.9 °F - 41.0 °F 74% 30.15 in 10.0 mi Calm Calm - N/A   Clear
3:53 PM 46.0 °F - 39.0 °F 76% 30.17 in 10.0 mi Calm Calm - N/A   Clear
4:53 PM 45.0 °F - 37.9 °F 76% 30.17 in 10.0 mi Calm Calm - N/A   Clear
5:53 PM 42.1 °F - 37.0 °F 82% 30.19 in 9.0 mi Calm Calm - N/A   Clear
6:53 PM 39.9 °F - 36.0 °F 86% 30.19 in 10.0 mi Calm Calm - N/A   Clear
7:53 PM 39.0 °F - 36.0 °F 89% 30.22 in 10.0 mi Calm Calm - N/A   Clear
8:53 PM 37.9 °F - 35.1 °F 89% 30.24 in 10.0 mi Calm Calm - N/A   Clear
9:53 PM 37.0 °F - 34.0 °F 89% 30.25 in 10.0 mi Calm Calm - N/A   Clear
10:53 PM 36.0 °F 33.3 °F 33.1 °F 89% 30.25 in 9.0 mi NE 3.5 mph - N/A   Clear
11:53 PM 35.1 °F 32.2 °F 32.0 °F 89% 30.27 in 10.0 mi NE 3.5 mph - N/A   Clear